Back to catalog

SL-12 R/B

AUX MOTOR

AliveHEO
NORAD 15265·ROCKET BODY·🇷🇺 Russia

Launched Sep 4, 1984 from Baikonur Cosmodrome

Loading…

Next Passes (next 24 hours)

TLE

FreshSource: Space-Track

Epoch: Sep 14, 2026, 14:19 UTC

1 15265U 84095G   26257.59670935  .00030655  00000-0  25562-2 0  9992
2 15265  51.9284 171.3923 4402174  53.5504 339.5523  6.69299805691583

Track SL-12 R/B in real time with AllMySat

Download on the App Store